TimeCST,TemperatureF,Dew PointF,Humidity,Sea Level PressureIn,VisibilityMPH,Wind Direction,Wind SpeedMPH,Gust SpeedMPH,PrecipitationIn,Events,Conditions,WindDirDegrees,DateUTC
12:58 AM,59.0,53.2,81,30.12,10.0,South,18.4,-,N/A,,Clear,170,2013-02-19 06:58:00
1:58 AM,59.0,55.0,87,30.12,10.0,South,13.8,-,N/A,,Partly Cloudy,170,2013-02-19 07:58:00
2:58 AM,60.6,56.8,87,30.09,10.0,South,15.0,-,N/A,,Clear,180,2013-02-19 08:58:00
3:58 AM,62.1,57.7,86,30.09,10.0,South,15.0,-,N/A,,Mostly Cloudy,180,2013-02-19 09:58:00
4:58 AM,63.1,59.7,89,30.08,10.0,South,13.8,-,N/A,,Overcast,170,2013-02-19 10:58:00
5:43 AM,60.8,60.8,100,30.08,10.0,South,13.8,-,N/A,,Overcast,170,2013-02-19 11:43:00
5:55 AM,81.3,59.0,46,29.89,9999.0,NW,11.5,-,N/A,,Clear,310,2013-02-19 11:55:00
5:58 AM,61.5,60.6,97,30.10,10.0,SSE,15.0,-,N/A,,Mostly Cloudy,160,2013-02-19 11:58:00
6:08 AM,62.6,60.8,94,30.07,10.0,SSE,18.4,24.2,N/A,,Mostly Cloudy,160,2013-02-19 12:08:00
6:11 AM,62.6,60.8,94,30.07,6.0,SSE,17.3,-,N/A,Rain,Light Rain Showers,160,2013-02-19 12:11:00
6:16 AM,60.8,60.8,100,30.06,10.0,SSE,17.3,-,N/A,Rain,Light Rain,160,2013-02-19 12:16:00
6:58 AM,61.2,60.8,99,30.09,10.0,SSE,16.1,-,0.00,,Mostly Cloudy,160,2013-02-19 12:58:00
7:28 AM,62.6,62.6,100,30.08,10.0,SSE,16.1,-,N/A,,Mostly Cloudy,160,2013-02-19 13:28:00
7:58 AM,62.4,62.1,99,30.10,10.0,South,15.0,-,N/A,,Overcast,170,2013-02-19 13:58:00
8:58 AM,64.9,63.0,93,30.10,10.0,South,13.8,-,N/A,,Mostly Cloudy,190,2013-02-19 14:58:00
9:48 AM,68.0,64.4,88,30.09,10.0,South,16.1,21.9,N/A,,Light Drizzle,190,2013-02-19 15:48:00
9:58 AM,67.8,64.2,88,30.10,10.0,South,16.1,-,0.00,Rain,Light Rain Showers,190,2013-02-19 15:58:00
10:08 AM,66.2,64.4,94,30.09,10.0,South,15.0,-,N/A,,Light Drizzle,190,2013-02-19 16:08:00
10:25 AM,68.0,64.4,88,30.09,10.0,South,17.3,-,N/A,Rain,Light Rain,190,2013-02-19 16:25:00
10:57 AM,68.0,64.4,88,30.08,10.0,SSW,13.8,-,N/A,,Light Drizzle,200,2013-02-19 16:57:00
10:58 AM,67.3,64.9,92,30.09,10.0,South,12.7,-,0.00,,Light Drizzle,190,2013-02-19 16:58:00
11:08 AM,66.2,64.4,94,30.07,10.0,SW,12.7,-,N/A,Rain,Light Rain Showers,220,2013-02-19 17:08:00
11:13 AM,66.2,64.4,94,30.07,10.0,SSW,15.0,20.7,N/A,Rain,Light Rain Showers,200,2013-02-19 17:13:00
11:31 AM,66.2,66.2,100,30.08,9.0,WSW,15.0,25.3,N/A,Rain,Light Rain Showers,240,2013-02-19 17:31:00
11:36 AM,66.2,64.4,94,30.09,9.0,West,19.6,25.3,N/A,Rain,Light Rain,260,2013-02-19 17:36:00
11:41 AM,64.4,64.4,100,30.09,10.0,West,13.8,-,N/A,Rain,Light Rain,260,2013-02-19 17:41:00
11:46 AM,64.4,64.4,100,30.09,10.0,West,15.0,-,N/A,Rain,Light Rain Showers,260,2013-02-19 17:46:00
11:51 AM,66.2,64.4,94,30.08,10.0,West,15.0,23.0,N/A,,Light Drizzle,260,2013-02-19 17:51:00
11:58 AM,65.5,65.3,99,30.09,10.0,West,16.1,23.0,0.00,,Light Drizzle,260,2013-02-19 17:58:00
12:03 PM,66.2,66.2,100,30.08,10.0,West,17.3,24.2,N/A,,Light Drizzle,260,2013-02-19 18:03:00
12:08 PM,66.2,64.4,94,30.08,10.0,West,16.1,24.2,N/A,,Light Drizzle,260,2013-02-19 18:08:00
12:18 PM,66.2,66.2,100,30.08,10.0,West,15.0,-,N/A,,Light Drizzle,270,2013-02-19 18:18:00
12:19 PM,66.2,66.2,100,30.08,10.0,West,13.8,-,N/A,,Mostly Cloudy,270,2013-02-19 18:19:00
12:23 PM,66.2,64.4,94,30.08,10.0,West,12.7,-,N/A,,Light Drizzle,270,2013-02-19 18:23:00
12:28 PM,66.2,64.4,94,30.08,10.0,West,11.5,-,N/A,,Light Drizzle,280,2013-02-19 18:28:00
12:48 PM,64.4,64.4,100,30.07,10.0,West,12.7,-,N/A,,Light Drizzle,270,2013-02-19 18:48:00
12:58 PM,64.9,64.0,97,30.08,10.0,West,12.7,-,0.00,,Light Drizzle,260,2013-02-19 18:58:00
1:08 PM,66.2,64.4,94,30.06,10.0,West,11.5,-,N/A,,Light Drizzle,270,2013-02-19 19:08:00
1:28 PM,66.2,64.4,94,30.06,10.0,West,12.7,-,N/A,,Light Drizzle,280,2013-02-19 19:28:00
1:33 PM,68.0,64.4,88,30.06,10.0,West,13.8,-,N/A,,Light Drizzle,270,2013-02-19 19:33:00
1:42 PM,68.0,64.4,88,30.06,10.0,West,10.4,-,N/A,,Mostly Cloudy,270,2013-02-19 19:42:00
1:56 PM,68.0,64.4,88,30.07,10.0,West,13.8,-,N/A,,Mostly Cloudy,260,2013-02-19 19:56:00
2:25 PM,68.0,64.4,88,30.05,10.0,West,13.8,-,N/A,,Scattered Clouds,260,2013-02-19 20:25:00
2:55 PM,68.0,64.4,88,30.06,10.0,West,11.5,-,N/A,,Scattered Clouds,260,2013-02-19 20:55:00
3:55 PM,68.0,62.6,83,30.07,10.0,NW,10.4,-,N/A,,Scattered Clouds,320,2013-02-19 21:55:00
4:58 PM,66.6,59.5,78,30.09,10.0,North,6.9,-,N/A,,Partly Cloudy,350,2013-02-19 22:58:00
6:58 PM,58.3,52.9,82,30.13,10.0,North,3.5,-,0.00,,Clear,10,2013-02-20 00:58:00
7:58 PM,51.4,49.8,94,30.14,10.0,NW,3.5,-,N/A,,Clear,320,2013-02-20 01:58:00
8:58 PM,54.7,46.8,75,30.16,10.0,North,10.4,-,N/A,,Clear,350,2013-02-20 02:58:00
9:58 PM,54.0,41.2,62,30.17,10.0,North,8.1,-,N/A,,Clear,350,2013-02-20 03:58:00
10:58 PM,51.8,39.6,63,30.17,10.0,North,10.4,-,N/A,,Clear,360,2013-02-20 04:58:00
11:58 PM,50.0,38.3,64,30.18,10.0,North,8.1,-,N/A,,Clear,350,2013-02-20 05:58:00